Regional Weather Roundup
Issued by NWS

Home | Current Version | Previous Version | Text Only | Print | Product List | Glossary Off
Versions: 1 2 3 4 5 6 7 8 9 10 11 12 13 14 15 16 17 18 19 20 21 22 23 24 25 26 27 28 29 30 31 32 33 34 35 36 37 38 39 40 41 42 43 44 45 46 47 48 49 50

000
ASUS43 KTOP 230759
RWRKS

WEATHER ROUNDUP FOR KANSAS
NATIONAL WEATHER SERVICE GOODLAND KS
200 AM CST TUE JAN 23 2018

NOTE:  "FAIR" INDICATES FEW OR NO CLOUDS BELOW 12,000 FEET WITH NO
SIGNIFICANT WEATHER AND/OR OBSTRUCTIONS TO VISIBILITY.

KSZ001>006-013>018-027>032-041>047-230900-
NORTHWEST KANSAS

CITY           SKY/WX    TMP DP  RH WIND       PRES   REMARKS
GOODLAND       MIX PCPN  15   6  67 W15       30.11R WCI   0
HAYS           CLEAR     22  17  81 W9        30.10S
HILL CITY      CLEAR     24  17  74 NW14      30.10S WCI  12
RUSSELL        CLEAR     28  20  71 NW18      30.07R WCI  15
$$

KSZ061>065-074>080-084>089-230900-
SOUTHWEST KANSAS

CITY           SKY/WX    TMP DP  RH WIND       PRES   REMARKS
DODGE CITY     CLEAR     27  14  58 NW14      30.12S WCI  16
GARDEN CITY    CLEAR     17  11  77 W10       30.12F WCI   5
GREAT BEND     CLEAR     27  19  72 NW15      30.09R WCI  15
LIBERAL        CLEAR     22  11  62 NW12      30.16S WCI  10
$$

KSZ066>073-081>083-090>101-230900-
SOUTHEAST KANSAS

CITY           SKY/WX    TMP DP  RH WIND       PRES   REMARKS
COFFEYVILLE    CLEAR     34  25  69 NW12      30.02R WCI  25
HUTCHINSON     CLEAR     29  21  72 NW16      30.05R WCI  17
MEDICINE LODGE   N/A     34  17  50 NW12      30.10R WCI  25
NEWTON         CLEAR     28  22  78 NW15      30.04R WCI  16
PARSONS        CLEAR     32  26  78 NW10      30.02R WCI  24
WICHITA INTL   CLEAR     31  22  69 NW17      30.05R WCI  19
WICHITA JABRA  CLEAR     30  22  72 NW18G25   30.04R WCI  18
WICHITA MCCONL CLEAR     31  20  65 NW16G24   30.04R WCI  20
WINFIELD       CLEAR     29  22  75 NW10      30.06R WCI  20
$$

KSZ007>012-019>026-033>040-048>060-102>105-230900-
NORTHEAST KANSAS

CITY           SKY/WX    TMP DP  RH WIND       PRES   REMARKS
CONCORDIA      CLEAR     26  21  81 NW14      30.03R WCI  14
EMPORIA        CLOUDY    29  22  75 NW16G23   30.01R WCI  17
LAWRENCE       CLOUDY    30  26  85 W15G24    29.97R WCI  19
MANHATTAN      CLOUDY    27  21  78 MISG      30.04R
OLATHE IND     CLOUDY    30  26  85 W18       29.94R WCI  18
OLATHE EXE     CLOUDY    29  25  85 NW13G21   29.92R WCI  19
SALINA         CLEAR     29  23  78 NW16      30.05R WCI  17
TOPEKA BILLARD CLOUDY    30  25  81 NW12      30.00R WCI  20
TOPEKA FORBES  CLOUDY    30  25  81 NW16      29.98R WCI  19
$$



USA.gov is the U.S. government's official web portal to all federal, state and local government web resources and services.